Time,TemperatureF,DewpointF,PressureIn,WindDirection,WindDirectionDegrees,WindSpeedMPH,WindSpeedGustMPH,Humidity,HourlyPrecipIn,Conditions,Clouds,dailyrainin,SolarRadiationWatts/m^2,SoftwareType,DateUTC
2013-03-24 00:02:00,28.8,20.3,30.10,WNW,300,0.0,7.0,70,0.00,,,0.00,0.0,meteohub,2013-03-24 05:02:00,
2013-03-24 00:08:00,28.8,20.3,30.10,NW,326,0.0,7.0,70,0.00,,,0.00,0.0,meteohub,2013-03-24 05:08:00,
2013-03-24 00:13:00,28.8,20.3,30.10,NW,326,0.0,7.0,70,0.00,,,0.00,0.0,meteohub,2013-03-24 05:13:00,
2013-03-24 00:18:00,28.8,20.3,30.10,NW,326,0.0,7.0,70,0.00,,,0.00,0.0,meteohub,2013-03-24 05:18:00,
2013-03-24 00:23:00,28.8,19.9,30.10,NW,326,0.0,5.0,69,0.00,,,0.00,0.0,meteohub,2013-03-24 05:23:00,
2013-03-24 00:28:00,28.8,19.9,30.10,North,349,0.0,2.0,69,0.00,,,0.00,0.0,meteohub,2013-03-24 05:28:00,
2013-03-24 00:33:00,28.6,19.4,30.10,NW,313,0.0,5.0,68,0.00,,,0.00,0.0,meteohub,2013-03-24 05:33:00,
2013-03-24 00:38:00,28.8,19.6,30.10,NNW,346,0.0,5.0,68,0.00,,,0.00,0.0,meteohub,2013-03-24 05:38:00,
2013-03-24 00:43:00,28.8,19.6,30.10,NNE,19,0.0,10.0,68,0.00,,,0.00,0.0,meteohub,2013-03-24 05:43:00,
2013-03-24 00:48:00,28.8,19.2,30.10,NNW,346,0.0,12.0,67,0.00,,,0.00,0.0,meteohub,2013-03-24 05:48:00,
2013-03-24 00:53:00,28.6,19.0,30.10,North,0,0.0,12.0,67,0.00,,,0.00,0.0,meteohub,2013-03-24 05:53:00,
2013-03-24 00:58:00,28.6,19.0,30.10,NNW,338,2.0,12.0,67,0.00,,,0.00,0.0,meteohub,2013-03-24 05:58:00,
2013-03-24 01:03:00,28.6,19.0,30.10,North,5,0.0,12.0,67,0.00,,,0.00,0.0,meteohub,2013-03-24 06:03:00,
2013-03-24 01:08:00,28.6,19.0,30.10,NE,36,0.0,12.0,67,0.00,,,0.00,0.0,meteohub,2013-03-24 06:08:00,
2013-03-24 01:13:00,28.6,19.0,30.10,NNW,336,0.0,12.0,67,0.00,,,0.00,0.0,meteohub,2013-03-24 06:13:00,
2013-03-24 01:18:00,28.6,19.0,30.10,NNW,344,0.0,10.0,67,0.00,,,0.00,0.0,meteohub,2013-03-24 06:18:00,
2013-03-24 01:23:00,28.6,19.0,30.10,North,5,0.0,12.0,67,0.00,,,0.00,0.0,meteohub,2013-03-24 06:23:00,
2013-03-24 01:28:00,28.4,19.2,30.10,NNW,339,0.0,12.0,68,0.00,,,0.00,0.0,meteohub,2013-03-24 06:28:00,
2013-03-24 01:34:00,28.6,19.4,30.10,NW,321,5.0,15.0,68,0.00,,,0.00,0.0,meteohub,2013-03-24 06:34:00,
2013-03-24 01:39:00,28.4,19.2,30.10,NNE,13,0.0,15.0,68,0.00,,,0.00,0.0,meteohub,2013-03-24 06:39:00,
2013-03-24 01:44:00,28.4,19.2,30.09,WNW,298,0.0,20.0,68,0.00,,,0.00,0.0,meteohub,2013-03-24 06:44:00,
2013-03-24 01:49:00,28.4,19.2,30.09,NE,34,7.0,20.0,68,0.00,,,0.00,0.0,meteohub,2013-03-24 06:49:00,
2013-03-24 01:54:00,28.4,19.2,30.09,NE,36,0.0,20.0,68,0.00,,,0.00,0.0,meteohub,2013-03-24 06:54:00,
2013-03-24 01:59:00,28.2,19.0,30.09,North,355,5.0,15.0,68,0.00,,,0.00,0.0,meteohub,2013-03-24 06:59:00,
2013-03-24 02:04:00,28.2,19.0,30.09,North,5,10.0,15.0,68,0.00,,,0.00,0.0,meteohub,2013-03-24 07:04:00,
2013-03-24 02:09:00,28.2,19.0,30.09,North,5,5.0,15.0,68,0.00,,,0.00,0.0,meteohub,2013-03-24 07:09:00,
2013-03-24 02:14:00,28.2,19.4,30.09,NNE,22,0.0,15.0,69,0.00,,,0.00,0.0,meteohub,2013-03-24 07:14:00,
2013-03-24 02:19:00,28.0,18.9,30.09,North,0,0.0,15.0,68,0.00,,,0.00,0.0,meteohub,2013-03-24 07:19:00,
2013-03-24 02:24:00,28.0,19.2,30.09,NNE,19,5.0,15.0,69,0.00,,,0.00,0.0,meteohub,2013-03-24 07:24:00,
2013-03-24 02:29:00,28.0,19.2,30.09,NNE,26,0.0,17.0,69,0.00,,,0.00,0.0,meteohub,2013-03-24 07:29:00,
2013-03-24 02:35:00,28.0,19.2,30.09,North,355,10.0,22.0,69,0.00,,,0.00,0.0,meteohub,2013-03-24 07:35:00,
2013-03-24 02:40:00,27.9,19.0,30.09,NNE,22,0.0,22.0,69,0.00,,,0.00,0.0,meteohub,2013-03-24 07:40:00,
2013-03-24 02:45:00,27.9,19.0,30.09,North,355,0.0,15.0,69,0.00,,,0.00,0.0,meteohub,2013-03-24 07:45:00,
2013-03-24 02:50:00,27.9,19.0,30.09,NNE,25,2.0,15.0,69,0.00,,,0.00,0.0,meteohub,2013-03-24 07:50:00,
2013-03-24 02:55:00,27.7,18.9,30.09,NNW,332,0.0,17.0,69,0.00,,,0.00,0.0,meteohub,2013-03-24 07:55:00,
2013-03-24 03:00:00,27.5,18.7,30.09,NNW,347,0.0,17.0,69,0.00,,,0.00,0.0,meteohub,2013-03-24 08:00:00,
2013-03-24 03:05:00,27.3,18.9,30.09,NNW,328,0.0,17.0,70,0.00,,,0.00,0.0,meteohub,2013-03-24 08:05:00,
2013-03-24 03:10:00,27.3,18.9,30.09,North,11,0.0,15.0,70,0.00,,,0.00,0.0,meteohub,2013-03-24 08:10:00,
2013-03-24 03:15:00,27.1,18.7,30.09,NE,44,0.0,12.0,70,0.00,,,0.00,0.0,meteohub,2013-03-24 08:15:00,
2013-03-24 03:20:00,27.1,19.0,30.09,NNE,27,7.0,15.0,71,0.00,,,0.00,0.0,meteohub,2013-03-24 08:20:00,
2013-03-24 03:25:00,27.0,18.9,30.09,NNW,336,0.0,15.0,71,0.00,,,0.00,0.0,meteohub,2013-03-24 08:25:00,
2013-03-24 03:30:00,27.0,18.9,30.09,North,355,0.0,12.0,71,0.00,,,0.00,0.0,meteohub,2013-03-24 08:30:00,
2013-03-24 03:35:00,27.0,18.9,30.09,NE,34,2.0,12.0,71,0.00,,,0.00,0.0,meteohub,2013-03-24 08:35:00,
2013-03-24 03:40:00,27.0,18.9,30.09,NNE,29,0.0,12.0,71,0.00,,,0.00,0.0,meteohub,2013-03-24 08:40:00,
2013-03-24 03:45:00,27.1,19.0,30.09,NNE,17,0.0,12.0,71,0.00,,,0.00,0.0,meteohub,2013-03-24 08:45:00,
2013-03-24 03:50:00,27.1,19.0,30.08,NNE,17,0.0,12.0,71,0.00,,,0.00,0.0,meteohub,2013-03-24 08:50:00,
2013-03-24 03:55:00,27.1,19.0,30.08,NE,49,5.0,10.0,71,0.00,,,0.00,0.0,meteohub,2013-03-24 08:55:00,
2013-03-24 04:00:00,27.0,18.9,30.08,NE,49,0.0,7.0,71,0.00,,,0.00,0.0,meteohub,2013-03-24 09:00:00,
2013-03-24 04:05:00,27.0,18.9,30.08,NE,44,0.0,7.0,71,0.00,,,0.00,0.0,meteohub,2013-03-24 09:05:00,
2013-03-24 04:11:00,27.0,19.2,30.08,NE,44,0.0,7.0,72,0.00,,,0.00,0.0,meteohub,2013-03-24 09:11:00,
2013-03-24 04:16:00,26.8,19.0,30.08,NE,44,0.0,7.0,72,0.00,,,0.00,0.0,meteohub,2013-03-24 09:16:00,
2013-03-24 04:21:00,26.8,19.0,30.08,NE,36,0.0,7.0,72,0.00,,,0.00,0.0,meteohub,2013-03-24 09:21:00,
2013-03-24 04:26:00,26.8,19.0,30.07,ENE,60,5.0,7.0,72,0.00,,,0.00,0.0,meteohub,2013-03-24 09:26:00,
2013-03-24 04:32:00,26.8,19.2,30.07,North,9,0.0,7.0,73,0.00,,,0.00,0.0,meteohub,2013-03-24 09:32:00,
2013-03-24 04:37:00,26.6,19.0,30.08,NNE,24,5.0,7.0,73,0.00,,,0.00,0.0,meteohub,2013-03-24 09:37:00,
2013-03-24 04:42:00,26.6,18.9,30.08,NE,37,0.0,7.0,72,0.00,,,0.00,0.0,meteohub,2013-03-24 09:42:00,
2013-03-24 04:47:00,26.6,19.0,30.08,NE,36,0.0,10.0,73,0.00,,,0.00,0.0,meteohub,2013-03-24 09:47:00,
2013-03-24 04:52:00,26.4,18.9,30.07,NE,36,0.0,10.0,73,0.00,,,0.00,0.0,meteohub,2013-03-24 09:52:00,
2013-03-24 04:57:00,26.4,18.9,30.08,NE,36,0.0,10.0,73,0.00,,,0.00,0.0,meteohub,2013-03-24 09:57:00,
2013-03-24 05:02:00,26.4,18.9,30.08,NE,36,0.0,0.0,73,0.00,,,0.00,0.0,meteohub,2013-03-24 10:02:00,
2013-03-24 05:07:00,26.4,18.9,30.08,NE,36,0.0,0.0,73,0.00,,,0.00,0.0,meteohub,2013-03-24 10:07:00,
2013-03-24 05:12:00,26.4,18.9,30.08,NE,36,0.0,0.0,73,0.00,,,0.00,0.0,meteohub,2013-03-24 10:12:00,
2013-03-24 05:17:00,26.2,18.9,30.08,NE,36,0.0,0.0,73,0.00,,,0.00,0.0,meteohub,2013-03-24 10:17:00,
2013-03-24 05:22:00,26.2,18.9,30.08,NE,36,0.0,0.0,73,0.00,,,0.00,0.0,meteohub,2013-03-24 10:22:00,
2013-03-24 05:27:00,26.2,19.0,30.08,NE,36,0.0,0.0,74,0.00,,,0.00,0.0,meteohub,2013-03-24 10:27:00,
2013-03-24 05:32:00,26.2,19.0,30.08,NE,36,0.0,0.0,74,0.00,,,0.00,0.0,meteohub,2013-03-24 10:32:00,
2013-03-24 05:37:00,26.2,19.0,30.08,NE,36,0.0,0.0,74,0.00,,,0.00,0.0,meteohub,2013-03-24 10:37:00,
2013-03-24 05:42:00,26.1,18.9,30.08,NE,36,0.0,0.0,74,0.00,,,0.00,0.0,meteohub,2013-03-24 10:42:00,
2013-03-24 05:47:00,26.1,18.9,30.08,NE,36,0.0,0.0,74,0.00,,,0.00,0.0,meteohub,2013-03-24 10:47:00,
2013-03-24 05:52:00,26.1,19.2,30.08,NE,36,0.0,0.0,75,0.00,,,0.00,0.0,meteohub,2013-03-24 10:52:00,
2013-03-24 05:57:00,26.1,19.2,30.09,NE,36,0.0,0.0,75,0.00,,,0.00,0.0,meteohub,2013-03-24 10:57:00,
2013-03-24 06:03:00,26.1,19.6,30.09,ENE,74,0.0,0.0,76,0.00,,,0.00,0.0,meteohub,2013-03-24 11:03:00,
2013-03-24 06:08:00,26.1,20.1,30.09,ENE,63,7.0,7.0,78,0.00,,,0.00,0.0,meteohub,2013-03-24 11:08:00,
2013-03-24 06:13:00,26.1,20.5,30.09,East,85,0.0,12.0,79,0.00,,,0.00,0.0,meteohub,2013-03-24 11:13:00,
2013-03-24 06:18:00,26.1,20.7,30.09,NNE,28,0.0,12.0,80,0.00,,,0.00,0.0,meteohub,2013-03-24 11:18:00,
2013-03-24 06:23:00,26.1,20.7,30.09,East,96,0.0,12.0,80,0.00,,,0.00,0.0,meteohub,2013-03-24 11:23:00,
2013-03-24 06:28:00,26.1,21.0,30.09,East,96,0.0,10.0,81,0.00,,,0.00,0.0,meteohub,2013-03-24 11:28:00,
2013-03-24 06:33:00,25.9,21.2,30.09,East,89,0.0,7.0,82,0.00,,,0.00,0.0,meteohub,2013-03-24 11:33:00,
2013-03-24 06:38:00,25.9,21.2,30.09,NNE,32,0.0,5.0,82,0.00,,,0.00,0.0,meteohub,2013-03-24 11:38:00,
2013-03-24 06:43:00,25.7,21.2,30.09,East,82,0.0,5.0,83,0.00,,,0.00,0.0,meteohub,2013-03-24 11:43:00,
2013-03-24 06:48:00,25.7,21.2,30.09,NE,54,0.0,5.0,83,0.00,,,0.00,0.0,meteohub,2013-03-24 11:48:00,
2013-03-24 06:53:00,25.5,21.4,30.09,NE,56,0.0,2.0,84,0.00,,,0.00,0.0,meteohub,2013-03-24 11:53:00,
2013-03-24 06:58:00,25.5,21.4,30.09,ENE,77,7.0,7.0,84,0.00,,,0.00,0.0,meteohub,2013-03-24 11:58:00,
2013-03-24 07:03:00,25.5,21.4,30.09,ENE,57,0.0,7.0,84,0.00,,,0.00,0.0,meteohub,2013-03-24 12:03:00,
2013-03-24 07:09:00,25.3,21.4,30.10,NE,52,0.0,7.0,85,0.00,,,0.00,0.0,meteohub,2013-03-24 12:09:00,
2013-03-24 07:14:00,25.3,21.4,30.10,ENE,77,5.0,7.0,85,0.00,,,0.00,0.0,meteohub,2013-03-24 12:14:00,
2013-03-24 07:19:00,25.3,21.4,30.10,NE,53,2.0,7.0,85,0.00,,,0.00,5.0,meteohub,2013-03-24 12:19:00,
2013-03-24 07:24:00,25.3,21.4,30.10,NE,55,0.0,17.0,85,0.00,,,0.00,5.0,meteohub,2013-03-24 12:24:00,
2013-03-24 07:29:00,25.3,21.4,30.10,NE,55,0.0,17.0,85,0.00,,,0.00,7.0,meteohub,2013-03-24 12:29:00,
2013-03-24 07:34:00,25.3,21.4,30.10,NNE,23,0.0,17.0,85,0.00,,,0.00,11.0,meteohub,2013-03-24 12:34:00,
2013-03-24 07:39:00,25.2,21.6,30.10,ENE,65,0.0,10.0,86,0.00,,,0.00,12.0,meteohub,2013-03-24 12:39:00,
2013-03-24 07:44:00,25.2,21.6,30.10,ENE,65,0.0,10.0,86,0.00,,,0.00,16.0,meteohub,2013-03-24 12:44:00,
2013-03-24 07:49:00,25.3,21.7,30.10,ENE,65,0.0,10.0,86,0.00,,,0.00,19.0,meteohub,2013-03-24 12:49:00,
2013-03-24 07:54:00,25.3,21.7,30.10,ENE,63,0.0,0.0,86,0.00,,,0.00,21.0,meteohub,2013-03-24 12:54:00,
2013-03-24 07:59:00,25.3,21.7,30.10,ENE,64,0.0,0.0,86,0.00,,,0.00,25.0,meteohub,2013-03-24 12:59:00,
2013-03-24 08:04:00,25.3,22.1,30.10,NE,34,0.0,7.0,87,0.00,,,0.00,28.0,meteohub,2013-03-24 13:04:00,
2013-03-24 08:09:00,25.3,22.1,30.10,NE,44,0.0,7.0,87,0.00,,,0.00,32.0,meteohub,2013-03-24 13:09:00,
2013-03-24 08:14:00,25.3,22.1,30.10,NNW,348,0.0,17.0,87,0.00,,,0.00,37.0,meteohub,2013-03-24 13:14:00,
2013-03-24 08:19:00,25.3,22.1,30.10,NNE,32,0.0,17.0,87,0.00,,,0.00,39.0,meteohub,2013-03-24 13:19:00,
2013-03-24 08:24:00,25.3,22.1,30.10,NNE,22,0.0,15.0,87,0.01,,,0.01,42.0,meteohub,2013-03-24 13:24:00,
2013-03-24 08:29:00,25.3,22.1,30.10,East,80,0.0,15.0,87,0.01,,,0.01,44.0,meteohub,2013-03-24 13:29:00,
2013-03-24 08:34:00,25.5,22.3,30.10,East,88,0.0,15.0,87,0.01,,,0.01,49.0,meteohub,2013-03-24 13:34:00,
2013-03-24 08:39:00,25.5,22.3,30.10,NE,49,0.0,7.0,87,0.01,,,0.01,56.0,meteohub,2013-03-24 13:39:00,
2013-03-24 08:44:00,25.5,22.3,30.10,North,5,0.0,12.0,87,0.01,,,0.01,62.0,meteohub,2013-03-24 13:44:00,
2013-03-24 08:50:00,25.5,22.3,30.10,NE,50,0.0,12.0,87,0.01,,,0.01,69.0,meteohub,2013-03-24 13:50:00,
2013-03-24 08:55:00,25.7,22.5,30.10,NNE,18,0.0,12.0,87,0.01,,,0.01,76.0,meteohub,2013-03-24 13:55:00,
2013-03-24 09:00:00,25.7,22.5,30.10,NW,324,0.0,12.0,87,0.01,,,0.01,79.0,meteohub,2013-03-24 14:00:00,
2013-03-24 09:05:00,25.9,22.5,30.10,NE,41,0.0,12.0,87,0.01,,,0.01,84.0,meteohub,2013-03-24 14:05:00,
2013-03-24 09:10:00,26.1,22.6,30.10,ENE,63,0.0,12.0,87,0.01,,,0.01,95.0,meteohub,2013-03-24 14:10:00,
2013-03-24 09:15:00,26.1,22.6,30.09,ENE,57,0.0,12.0,87,0.01,,,0.01,107.0,meteohub,2013-03-24 14:15:00,
2013-03-24 09:20:00,26.2,22.6,30.09,NE,35,0.0,12.0,86,0.01,,,0.01,116.0,meteohub,2013-03-24 14:20:00,
2013-03-24 09:25:00,26.4,22.8,30.09,ENE,78,0.0,15.0,86,0.00,,,0.01,127.0,meteohub,2013-03-24 14:25:00,
2013-03-24 09:30:00,26.6,23.0,30.09,NNE,19,0.0,15.0,86,0.00,,,0.01,125.0,meteohub,2013-03-24 14:30:00,
2013-03-24 09:35:00,26.8,22.8,30.09,East,88,2.0,15.0,85,0.00,,,0.01,141.0,meteohub,2013-03-24 14:35:00,
2013-03-24 09:40:00,26.8,22.6,30.09,NNE,16,5.0,15.0,84,0.00,,,0.01,149.0,meteohub,2013-03-24 14:40:00,
2013-03-24 09:45:00,26.8,22.3,30.09,NE,36,10.0,15.0,83,0.00,,,0.01,162.0,meteohub,2013-03-24 14:45:00,
2013-03-24 09:50:00,26.8,22.1,30.09,East,82,0.0,15.0,82,0.00,,,0.01,176.0,meteohub,2013-03-24 14:50:00,
2013-03-24 09:56:00,27.0,22.5,30.09,NE,40,0.0,17.0,83,0.00,,,0.01,188.0,meteohub,2013-03-24 14:56:00,
2013-03-24 10:01:00,27.3,22.6,30.09,ENE,73,5.0,17.0,82,0.00,,,0.01,206.0,meteohub,2013-03-24 15:01:00,
2013-03-24 10:06:00,27.7,22.6,30.09,NNE,15,5.0,17.0,81,0.00,,,0.01,202.0,meteohub,2013-03-24 15:06:00,
2013-03-24 10:11:00,27.9,22.5,30.09,ESE,112,0.0,17.0,80,0.00,,,0.01,204.0,meteohub,2013-03-24 15:11:00,
2013-03-24 10:16:00,28.0,22.5,30.09,East,90,7.0,15.0,79,0.00,,,0.01,202.0,meteohub,2013-03-24 15:16:00,
2013-03-24 10:22:00,28.0,22.1,30.09,East,83,7.0,15.0,78,0.00,,,0.01,188.0,meteohub,2013-03-24 15:22:00,
2013-03-24 10:27:00,27.9,22.3,30.09,NE,51,10.0,20.0,79,0.00,,,0.01,151.0,meteohub,2013-03-24 15:27:00,
2013-03-24 10:32:00,27.9,22.3,30.09,NE,50,12.0,20.0,79,0.00,,,0.01,130.0,meteohub,2013-03-24 15:32:00,
2013-03-24 10:37:00,27.9,22.3,30.09,NE,53,0.0,20.0,79,0.00,,,0.01,190.0,meteohub,2013-03-24 15:37:00,
2013-03-24 10:42:00,28.0,22.6,30.09,ESE,115,5.0,20.0,80,0.00,,,0.01,183.0,meteohub,2013-03-24 15:42:00,
2013-03-24 10:47:00,28.2,22.6,30.09,East,100,0.0,15.0,79,0.00,,,0.01,162.0,meteohub,2013-03-24 15:47:00,
2013-03-24 10:52:00,28.2,22.6,30.09,NE,40,0.0,15.0,79,0.00,,,0.01,139.0,meteohub,2013-03-24 15:52:00,
2013-03-24 10:57:00,28.2,22.3,30.09,NE,46,7.0,15.0,78,0.00,,,0.01,167.0,meteohub,2013-03-24 15:57:00,
2013-03-24 11:02:00,28.2,22.3,30.09,NE,43,7.0,17.0,78,0.00,,,0.01,178.0,meteohub,2013-03-24 16:02:00,
2013-03-24 11:07:00,28.2,22.3,30.09,East,93,0.0,17.0,78,0.00,,,0.01,192.0,meteohub,2013-03-24 16:07:00,
2013-03-24 11:12:00,28.6,22.3,30.09,NE,47,0.0,22.0,77,0.00,,,0.01,248.0,meteohub,2013-03-24 16:12:00,
2013-03-24 11:17:00,28.8,22.5,30.09,ENE,59,5.0,22.0,77,0.00,,,0.01,236.0,meteohub,2013-03-24 16:17:00,
2013-03-24 11:22:00,28.9,22.3,30.09,ENE,63,5.0,17.0,76,0.00,,,0.01,269.0,meteohub,2013-03-24 16:22:00,
2013-03-24 11:27:00,28.9,22.1,30.08,ENE,57,5.0,17.0,75,0.00,,,0.01,301.0,meteohub,2013-03-24 16:27:00,
2013-03-24 11:32:00,29.1,22.5,30.08,North,9,0.0,20.0,76,0.00,,,0.01,264.0,meteohub,2013-03-24 16:32:00,
2013-03-24 11:38:00,29.1,21.9,30.08,East,92,5.0,20.0,74,0.00,,,0.01,237.0,meteohub,2013-03-24 16:38:00,
2013-03-24 11:43:00,29.1,22.3,30.08,NE,55,2.0,20.0,75,0.00,,,0.01,227.0,meteohub,2013-03-24 16:43:00,
2013-03-24 11:48:00,29.3,22.1,30.08,NNE,29,5.0,17.0,74,0.00,,,0.01,209.0,meteohub,2013-03-24 16:48:00,
2013-03-24 11:53:00,29.1,22.3,30.08,NE,53,0.0,17.0,75,0.00,,,0.01,264.0,meteohub,2013-03-24 16:53:00,
2013-03-24 11:58:00,29.3,22.3,30.08,NNE,24,5.0,17.0,75,0.00,,,0.01,369.0,meteohub,2013-03-24 16:58:00,
2013-03-24 12:03:00,29.7,22.6,30.08,East,98,0.0,17.0,75,0.00,,,0.01,408.0,meteohub,2013-03-24 17:03:00,
2013-03-24 12:08:00,30.0,23.0,30.08,NNE,30,7.0,10.0,75,0.00,,,0.01,497.0,meteohub,2013-03-24 17:08:00,
2013-03-24 12:13:00,30.4,22.5,30.07,ENE,61,0.0,20.0,72,0.00,,,0.01,582.0,meteohub,2013-03-24 17:13:00,
2013-03-24 12:18:00,30.7,22.5,30.07,NE,35,7.0,20.0,71,0.00,,,0.01,418.0,meteohub,2013-03-24 17:18:00,
2013-03-24 12:23:00,30.7,22.8,30.07,NNW,343,7.0,20.0,72,0.00,,,0.01,411.0,meteohub,2013-03-24 17:23:00,
2013-03-24 12:28:00,30.9,22.3,30.07,ESE,115,0.0,15.0,70,0.00,,,0.01,237.0,meteohub,2013-03-24 17:28:00,
2013-03-24 12:33:00,30.7,22.1,30.07,North,11,0.0,15.0,70,0.00,,,0.01,209.0,meteohub,2013-03-24 17:33:00,
2013-03-24 12:38:00,30.6,21.9,30.07,NNE,24,2.0,12.0,70,0.00,,,0.01,211.0,meteohub,2013-03-24 17:38:00,
2013-03-24 12:44:00,30.4,22.1,30.07,North,355,0.0,17.0,71,0.00,,,0.01,232.0,meteohub,2013-03-24 17:44:00,
2013-03-24 12:49:00,30.2,21.9,30.07,North,11,5.0,17.0,71,0.00,,,0.01,239.0,meteohub,2013-03-24 17:49:00,
2013-03-24 12:54:00,30.2,22.3,30.06,NNE,30,0.0,20.0,72,0.00,,,0.01,283.0,meteohub,2013-03-24 17:54:00,
2013-03-24 12:59:00,30.4,22.1,30.06,NNE,23,10.0,20.0,71,0.00,,,0.01,278.0,meteohub,2013-03-24 17:59:00,
2013-03-24 13:04:00,30.6,22.6,30.06,NNE,20,12.0,20.0,72,0.00,,,0.01,288.0,meteohub,2013-03-24 18:04:00,
2013-03-24 13:09:00,30.7,22.1,30.06,North,351,5.0,17.0,70,0.00,,,0.01,265.0,meteohub,2013-03-24 18:09:00,
2013-03-24 13:14:00,30.9,21.9,30.06,NNE,26,0.0,17.0,69,0.00,,,0.01,239.0,meteohub,2013-03-24 18:14:00,
2013-03-24 13:19:00,30.9,22.3,30.06,North,5,0.0,20.0,70,0.00,,,0.01,214.0,meteohub,2013-03-24 18:19:00,
2013-03-24 13:24:00,30.9,21.6,30.06,North,9,5.0,20.0,68,0.00,,,0.01,211.0,meteohub,2013-03-24 18:24:00,
2013-03-24 13:30:00,30.7,21.7,30.06,NNE,16,10.0,20.0,69,0.00,,,0.01,223.0,meteohub,2013-03-24 18:30:00,
2013-03-24 13:35:00,30.7,21.4,30.06,NE,37,0.0,22.0,68,0.00,,,0.01,236.0,meteohub,2013-03-24 18:35:00,
2013-03-24 13:40:00,30.7,21.4,30.06,NNW,330,0.0,22.0,68,0.00,,,0.01,216.0,meteohub,2013-03-24 18:40:00,
2013-03-24 13:45:00,30.9,21.6,30.06,NNE,19,5.0,25.0,68,0.00,,,0.01,206.0,meteohub,2013-03-24 18:45:00,
2013-03-24 13:50:00,31.1,21.4,30.06,NNE,26,0.0,25.0,67,0.00,,,0.01,218.0,meteohub,2013-03-24 18:50:00,
2013-03-24 13:55:00,31.3,21.6,30.06,NE,50,7.0,25.0,67,0.00,,,0.01,218.0,meteohub,2013-03-24 18:55:00,
2013-03-24 14:00:00,31.1,21.0,30.06,NNE,26,0.0,22.0,66,0.00,,,0.01,211.0,meteohub,2013-03-24 19:00:00,
2013-03-24 14:05:00,30.9,21.2,30.06,NE,45,0.0,22.0,67,0.00,,,0.01,218.0,meteohub,2013-03-24 19:05:00,
2013-03-24 14:10:00,31.1,21.4,30.06,NE,44,0.0,22.0,67,0.00,,,0.01,234.0,meteohub,2013-03-24 19:10:00,
2013-03-24 14:15:00,31.3,21.6,30.06,North,9,0.0,17.0,67,0.00,,,0.01,232.0,meteohub,2013-03-24 19:15:00,
2013-03-24 14:20:00,31.5,21.7,30.05,NNE,24,0.0,17.0,67,0.00,,,0.01,237.0,meteohub,2013-03-24 19:20:00,
2013-03-24 14:25:00,31.5,21.7,30.05,NNE,30,0.0,17.0,67,0.00,,,0.01,267.0,meteohub,2013-03-24 19:25:00,
2013-03-24 14:30:00,31.6,21.6,30.05,NNE,29,0.0,17.0,66,0.00,,,0.01,223.0,meteohub,2013-03-24 19:30:00,
2013-03-24 14:35:00,31.6,21.2,30.05,NE,49,0.0,15.0,65,0.00,,,0.01,241.0,meteohub,2013-03-24 19:35:00,
2013-03-24 14:40:00,31.6,21.2,30.05,NE,53,5.0,17.0,65,0.00,,,0.01,269.0,meteohub,2013-03-24 19:40:00,
2013-03-24 14:45:00,31.8,21.4,30.05,ENE,75,0.0,22.0,65,0.00,,,0.01,239.0,meteohub,2013-03-24 19:45:00,
2013-03-24 14:50:00,32.0,21.9,30.05,NE,38,2.0,22.0,66,0.00,,,0.01,244.0,meteohub,2013-03-24 19:50:00,
2013-03-24 14:56:00,32.2,21.7,30.05,North,0,2.0,22.0,65,0.00,,,0.01,315.0,meteohub,2013-03-24 19:56:00,
2013-03-24 15:01:00,32.0,21.6,30.05,ENE,65,0.0,20.0,65,0.00,,,0.01,336.0,meteohub,2013-03-24 20:01:00,
2013-03-24 15:06:00,31.8,21.4,30.05,NE,55,0.0,20.0,65,0.00,,,0.01,311.0,meteohub,2013-03-24 20:06:00,
2013-03-24 15:11:00,32.2,21.4,30.05,North,355,0.0,12.0,64,0.00,,,0.01,221.0,meteohub,2013-03-24 20:11:00,
2013-03-24 15:17:00,32.2,22.5,30.04,NNW,341,0.0,20.0,67,0.00,,,0.01,200.0,meteohub,2013-03-24 20:17:00,
2013-03-24 15:22:00,31.8,21.7,30.05,ENE,69,0.0,20.0,66,0.00,,,0.01,204.0,meteohub,2013-03-24 20:22:00,
2013-03-24 15:27:00,31.6,22.3,30.05,NW,319,10.0,20.0,68,0.00,,,0.01,220.0,meteohub,2013-03-24 20:27:00,
2013-03-24 15:32:00,31.6,23.4,30.05,ENE,68,0.0,22.0,71,0.00,,,0.01,239.0,meteohub,2013-03-24 20:32:00,
2013-03-24 15:37:00,31.5,23.9,30.05,NNE,12,5.0,22.0,73,0.00,,,0.01,279.0,meteohub,2013-03-24 20:37:00,
2013-03-24 15:42:00,31.3,23.9,30.05,NW,307,0.0,22.0,74,0.00,,,0.01,352.0,meteohub,2013-03-24 20:42:00,
2013-03-24 15:47:00,31.3,24.3,30.05,NW,306,0.0,20.0,75,0.00,,,0.01,408.0,meteohub,2013-03-24 20:47:00,
2013-03-24 15:52:00,31.5,23.5,30.04,NNE,26,0.0,20.0,72,0.00,,,0.01,418.0,meteohub,2013-03-24 20:52:00,
2013-03-24 15:57:00,31.8,23.2,30.04,NW,317,0.0,5.0,70,0.00,,,0.01,297.0,meteohub,2013-03-24 20:57:00,
2013-03-24 16:02:00,32.0,23.0,30.04,WNW,299,0.0,0.0,69,0.00,,,0.01,220.0,meteohub,2013-03-24 21:02:00,
2013-03-24 16:07:00,32.2,23.9,30.04,ESE,111,0.0,5.0,71,0.00,,,0.01,214.0,meteohub,2013-03-24 21:07:00,
2013-03-24 16:12:00,32.4,23.7,30.04,North,5,0.0,5.0,70,0.00,,,0.01,241.0,meteohub,2013-03-24 21:12:00,
2013-03-24 16:18:00,32.2,23.2,30.04,North,349,0.0,15.0,69,0.00,,,0.01,244.0,meteohub,2013-03-24 21:18:00,
2013-03-24 16:23:00,32.2,23.5,30.04,NNE,16,0.0,17.0,70,0.00,,,0.01,236.0,meteohub,2013-03-24 21:23:00,
2013-03-24 16:28:00,32.2,23.2,30.04,NW,325,7.0,17.0,69,0.00,,,0.01,243.0,meteohub,2013-03-24 21:28:00,
2013-03-24 16:33:00,32.2,23.5,30.04,NE,44,12.0,17.0,70,0.00,,,0.01,278.0,meteohub,2013-03-24 21:33:00,
2013-03-24 16:38:00,32.2,23.5,30.04,North,0,2.0,17.0,70,0.00,,,0.01,323.0,meteohub,2013-03-24 21:38:00,
2013-03-24 16:43:00,32.4,23.7,30.04,East,79,2.0,17.0,70,0.00,,,0.01,327.0,meteohub,2013-03-24 21:43:00,
2013-03-24 16:48:00,32.5,23.5,30.04,North,5,0.0,12.0,69,0.00,,,0.01,441.0,meteohub,2013-03-24 21:48:00,
2013-03-24 16:53:00,32.9,22.8,30.04,NE,43,0.0,17.0,66,0.00,,,0.01,279.0,meteohub,2013-03-24 21:53:00,
2013-03-24 16:58:00,32.9,23.2,30.04,North,355,7.0,17.0,67,0.00,,,0.01,248.0,meteohub,2013-03-24 21:58:00,
2013-03-24 17:03:00,32.7,23.4,30.04,North,5,0.0,20.0,68,0.00,,,0.01,229.0,meteohub,2013-03-24 22:03:00,
2013-03-24 17:08:00,32.4,22.6,30.04,NE,46,7.0,20.0,67,0.00,,,0.01,218.0,meteohub,2013-03-24 22:08:00,
2013-03-24 17:13:00,32.0,22.6,30.04,NNE,25,10.0,22.0,68,0.00,,,0.01,223.0,meteohub,2013-03-24 22:13:00,
2013-03-24 17:18:00,31.8,22.5,30.04,NW,323,15.0,25.0,68,0.00,,,0.01,213.0,meteohub,2013-03-24 22:18:00,
2013-03-24 17:23:00,31.6,22.6,30.04,North,0,7.0,28.0,69,0.00,,,0.01,216.0,meteohub,2013-03-24 22:23:00,
2013-03-24 17:28:00,31.6,22.6,30.04,ENE,64,0.0,28.0,69,0.00,,,0.01,223.0,meteohub,2013-03-24 22:28:00,
2013-03-24 17:33:00,31.6,22.6,30.04,NNE,17,12.0,28.0,69,0.00,,,0.01,229.0,meteohub,2013-03-24 22:33:00,
2013-03-24 17:38:00,31.6,23.0,30.04,NNE,13,2.0,20.0,70,0.00,,,0.01,258.0,meteohub,2013-03-24 22:38:00,
2013-03-24 17:43:00,31.8,22.8,30.04,WNW,289,10.0,20.0,69,0.00,,,0.01,244.0,meteohub,2013-03-24 22:43:00,
2013-03-24 17:48:00,32.0,22.6,30.04,North,355,0.0,20.0,68,0.00,,,0.01,192.0,meteohub,2013-03-24 22:48:00,
2013-03-24 17:54:00,31.8,22.5,30.04,North,350,5.0,20.0,68,0.00,,,0.01,165.0,meteohub,2013-03-24 22:54:00,
2013-03-24 17:59:00,31.8,22.5,30.04,North,5,0.0,20.0,68,0.00,,,0.01,153.0,meteohub,2013-03-24 22:59:00,
2013-03-24 18:04:00,31.8,22.5,30.04,NNE,17,0.0,20.0,68,0.00,,,0.01,148.0,meteohub,2013-03-24 23:04:00,
2013-03-24 18:09:00,31.8,21.7,30.04,NW,324,7.0,20.0,66,0.00,,,0.01,132.0,meteohub,2013-03-24 23:09:00,
2013-03-24 18:14:00,31.8,21.4,30.04,North,11,15.0,20.0,65,0.00,,,0.01,102.0,meteohub,2013-03-24 23:14:00,
2013-03-24 18:19:00,31.8,21.4,30.04,NNW,344,5.0,17.0,65,0.00,,,0.01,60.0,meteohub,2013-03-24 23:19:00,
2013-03-24 18:24:00,31.6,21.2,30.04,NW,323,0.0,17.0,65,0.00,,,0.01,44.0,meteohub,2013-03-24 23:24:00,
2013-03-24 18:29:00,31.5,21.0,30.04,North,5,12.0,22.0,65,0.00,,,0.01,33.0,meteohub,2013-03-24 23:29:00,
2013-03-24 18:34:00,31.3,21.9,30.05,NNE,16,12.0,22.0,68,0.00,,,0.01,47.0,meteohub,2013-03-24 23:34:00,
2013-03-24 18:39:00,30.9,22.6,30.05,NNW,346,5.0,25.0,71,0.00,,,0.01,56.0,meteohub,2013-03-24 23:39:00,
2013-03-24 18:44:00,30.7,22.5,30.05,North,5,0.0,25.0,71,0.00,,,0.01,63.0,meteohub,2013-03-24 23:44:00,
2013-03-24 18:50:00,30.6,22.3,30.05,NNE,14,5.0,25.0,71,0.00,,,0.01,60.0,meteohub,2013-03-24 23:50:00,
2013-03-24 18:55:00,30.4,22.1,30.05,North,349,17.0,25.0,71,0.00,,,0.01,51.0,meteohub,2013-03-24 23:55:00,
2013-03-24 19:00:00,30.0,22.1,30.05,NNW,340,0.0,22.0,72,0.00,,,0.01,39.0,meteohub,2013-03-25 00:00:00,
2013-03-24 19:05:00,30.0,22.1,30.05,NNW,333,2.0,25.0,72,0.00,,,0.01,30.0,meteohub,2013-03-25 00:05:00,
2013-03-24 19:10:00,29.8,21.9,30.05,North,350,7.0,28.0,72,0.00,,,0.01,23.0,meteohub,2013-03-25 00:10:00,
2013-03-24 19:15:00,29.7,22.1,30.05,NE,37,0.0,28.0,73,0.00,,,0.01,19.0,meteohub,2013-03-25 00:15:00,
2013-03-24 19:20:00,29.5,21.9,30.06,NNW,345,5.0,22.0,73,0.00,,,0.01,12.0,meteohub,2013-03-25 00:20:00,
2013-03-24 19:25:00,29.5,21.9,30.06,NNW,343,5.0,17.0,73,0.00,,,0.01,7.0,meteohub,2013-03-25 00:25:00,
2013-03-24 19:30:00,29.5,22.3,30.06,North,355,0.0,22.0,74,0.00,,,0.01,5.0,meteohub,2013-03-25 00:30:00,
2013-03-24 19:35:00,29.5,22.3,30.06,North,355,7.0,22.0,74,0.00,,,0.01,0.0,meteohub,2013-03-25 00:35:00,
2013-03-24 19:40:00,29.3,22.1,30.06,NNE,32,0.0,20.0,74,0.00,,,0.01,0.0,meteohub,2013-03-25 00:40:00,
2013-03-24 19:46:00,29.3,22.1,30.06,NNE,21,2.0,20.0,74,0.00,,,0.01,0.0,meteohub,2013-03-25 00:46:00,
2013-03-24 19:51:00,29.3,22.1,30.06,North,5,7.0,17.0,74,0.00,,,0.01,0.0,meteohub,2013-03-25 00:51:00,
2013-03-24 19:56:00,29.3,22.1,30.06,NE,45,0.0,17.0,74,0.00,,,0.01,0.0,meteohub,2013-03-25 00:56:00,
2013-03-24 20:02:00,29.1,22.3,30.06,NE,45,0.0,15.0,75,0.00,,,0.01,0.0,meteohub,2013-03-25 01:02:00,
2013-03-24 20:07:00,29.1,22.3,30.06,NE,44,0.0,15.0,75,0.00,,,0.01,0.0,meteohub,2013-03-25 01:07:00,
2013-03-24 20:12:00,29.1,22.5,30.06,ENE,74,0.0,12.0,76,0.00,,,0.01,0.0,meteohub,2013-03-25 01:12:00,
2013-03-24 20:17:00,28.9,22.6,30.06,North,5,0.0,12.0,77,0.00,,,0.01,0.0,meteohub,2013-03-25 01:17:00,
2013-03-24 20:22:00,28.9,22.6,30.07,NE,46,0.0,12.0,77,0.00,,,0.01,0.0,meteohub,2013-03-25 01:22:00,
2013-03-24 20:27:00,28.8,22.5,30.07,NE,46,0.0,12.0,77,0.00,,,0.01,0.0,meteohub,2013-03-25 01:27:00,
2013-03-24 20:32:00,28.8,22.5,30.07,NE,46,0.0,10.0,77,0.00,,,0.01,0.0,meteohub,2013-03-25 01:32:00,
2013-03-24 20:37:00,28.8,22.5,30.07,NE,46,0.0,2.0,77,0.00,,,0.01,0.0,meteohub,2013-03-25 01:37:00,
2013-03-24 20:42:00,28.6,22.3,30.07,North,5,10.0,0.0,77,0.00,,,0.01,0.0,meteohub,2013-03-25 01:42:00,
2013-03-24 20:47:00,28.6,20.7,30.07,NE,52,0.0,12.0,72,0.00,,,0.01,0.0,meteohub,2013-03-25 01:47:00,
2013-03-24 20:52:00,28.8,20.3,30.08,North,355,0.0,20.0,70,0.00,,,0.01,0.0,meteohub,2013-03-25 01:52:00,
2013-03-24 20:57:00,28.8,20.3,30.08,North,355,12.0,20.0,70,0.00,,,0.01,0.0,meteohub,2013-03-25 01:57:00,
2013-03-24 21:02:00,28.8,19.2,30.08,North,10,5.0,20.0,67,0.00,,,0.01,0.0,meteohub,2013-03-25 02:02:00,
2013-03-24 21:08:00,28.9,19.0,30.07,North,5,5.0,20.0,66,0.00,,,0.01,0.0,meteohub,2013-03-25 02:08:00,
2013-03-24 21:13:00,28.9,18.7,30.08,NE,40,15.0,20.0,65,0.00,,,0.01,0.0,meteohub,2013-03-25 02:13:00,
2013-03-24 21:18:00,28.9,18.7,30.08,NNE,24,20.0,20.0,65,0.00,,,0.01,0.0,meteohub,2013-03-25 02:18:00,
2013-03-24 21:23:00,28.9,18.3,30.09,NNW,348,25.0,30.0,64,0.00,,,0.01,0.0,meteohub,2013-03-25 02:23:00,
2013-03-24 21:28:00,28.9,18.0,30.09,NNW,340,10.0,30.0,63,0.00,,,0.01,0.0,meteohub,2013-03-25 02:28:00,
2013-03-24 21:33:00,28.9,18.0,30.09,North,0,10.0,30.0,63,0.00,,,0.01,0.0,meteohub,2013-03-25 02:33:00,
2013-03-24 21:38:00,28.9,18.3,30.09,North,0,7.0,30.0,64,0.00,,,0.01,0.0,meteohub,2013-03-25 02:38:00,
2013-03-24 21:43:00,28.8,17.8,30.09,NNE,18,0.0,30.0,63,0.00,,,0.01,0.0,meteohub,2013-03-25 02:43:00,
2013-03-24 21:48:00,28.8,18.1,30.09,NE,36,25.0,38.0,64,0.00,,,0.01,0.0,meteohub,2013-03-25 02:48:00,
2013-03-24 21:53:00,28.8,18.1,30.09,NNE,32,0.0,38.0,64,0.00,,,0.01,0.0,meteohub,2013-03-25 02:53:00,
2013-03-24 21:58:00,28.6,18.0,30.09,NE,38,2.0,38.0,64,0.00,,,0.01,0.0,meteohub,2013-03-25 02:58:00,
2013-03-24 22:04:00,28.6,18.0,30.10,North,11,15.0,28.0,64,0.00,,,0.01,0.0,meteohub,2013-03-25 03:04:00,
2013-03-24 22:09:00,28.4,18.1,30.10,NNE,16,20.0,38.0,65,0.00,,,0.01,0.0,meteohub,2013-03-25 03:09:00,
2013-03-24 22:14:00,28.2,18.0,30.10,NE,42,0.0,38.0,65,0.00,,,0.01,0.0,meteohub,2013-03-25 03:14:00,
2013-03-24 22:19:00,28.2,18.0,30.10,NNW,327,15.0,38.0,65,0.00,,,0.01,0.0,meteohub,2013-03-25 03:19:00,
2013-03-24 22:24:00,28.0,17.8,30.10,North,0,12.0,35.0,65,0.00,,,0.01,0.0,meteohub,2013-03-25 03:24:00,
2013-03-24 22:29:00,27.9,17.6,30.10,WNW,300,15.0,32.0,65,0.00,,,0.01,0.0,meteohub,2013-03-25 03:29:00,
2013-03-24 22:34:00,27.9,18.0,30.10,NNW,348,0.0,32.0,66,0.00,,,0.01,0.0,meteohub,2013-03-25 03:34:00,
2013-03-24 22:39:00,27.7,17.8,30.11,NNW,333,0.0,32.0,66,0.00,,,0.01,0.0,meteohub,2013-03-25 03:39:00,
2013-03-24 22:44:00,27.5,17.6,30.11,NW,322,0.0,32.0,66,0.00,,,0.01,0.0,meteohub,2013-03-25 03:44:00,
2013-03-24 22:49:00,27.3,17.8,30.11,NNW,329,0.0,30.0,67,0.00,,,0.01,0.0,meteohub,2013-03-25 03:49:00,
2013-03-24 22:54:00,27.3,17.8,30.11,NNE,17,27.0,30.0,67,0.00,,,0.01,0.0,meteohub,2013-03-25 03:54:00,
2013-03-24 22:59:00,27.3,17.8,30.11,NNW,336,12.0,30.0,67,0.00,,,0.01,0.0,meteohub,2013-03-25 03:59:00,
2013-03-24 23:00:00,27.3,17.8,30.11,North,0,7.0,30.0,67,0.00,,,0.01,0.0,meteohub,2013-03-25 04:00:00,
2013-03-24 23:02:00,27.1,17.6,30.11,North,355,17.0,30.0,67,0.00,,,0.01,0.0,meteohub,2013-03-25 04:02:00,
2013-03-24 23:07:00,27.1,17.6,30.11,NNE,16,25.0,30.0,67,0.00,,,0.01,0.0,meteohub,2013-03-25 04:07:00,
2013-03-24 23:12:00,27.1,17.6,30.11,NNE,19,2.0,32.0,67,0.00,,,0.01,0.0,meteohub,2013-03-25 04:12:00,
2013-03-24 23:17:00,27.1,17.6,30.11,NNW,338,0.0,32.0,67,0.00,,,0.01,0.0,meteohub,2013-03-25 04:17:00,
2013-03-24 23:22:00,27.1,18.0,30.11,NNW,340,7.0,32.0,68,0.00,,,0.01,0.0,meteohub,2013-03-25 04:22:00,
2013-03-24 23:27:00,27.1,18.0,30.11,NW,323,10.0,28.0,68,0.00,,,0.01,0.0,meteohub,2013-03-25 04:27:00,
2013-03-24 23:32:00,27.0,17.8,30.11,ENE,71,10.0,28.0,68,0.00,,,0.01,0.0,meteohub,2013-03-25 04:32:00,
2013-03-24 23:37:00,27.0,17.8,30.11,North,355,2.0,28.0,68,0.00,,,0.01,0.0,meteohub,2013-03-25 04:37:00,
2013-03-24 23:42:00,27.0,18.1,30.11,North,0,7.0,28.0,69,0.00,,,0.01,0.0,meteohub,2013-03-25 04:42:00,
2013-03-24 23:47:00,27.0,18.1,30.12,ENE,59,12.0,28.0,69,0.00,,,0.01,0.0,meteohub,2013-03-25 04:47:00,
2013-03-24 23:52:00,26.8,18.0,30.12,NNE,24,2.0,28.0,69,0.00,,,0.01,0.0,meteohub,2013-03-25 04:52:00,
2013-03-24 23:57:00,26.8,18.3,30.12,North,5,10.0,25.0,70,0.00,,,0.01,0.0,meteohub,2013-03-25 04:57:00,